Location: Northcutt
(34.7304°N, 84.4305°W)
Time: 02:59:45
(UTC+00:00)

Vanguard 2 - Pass Details

Date: 08 October 2022
Orbit: 553 x 2933 km, 32.9° (Epoch: 05 December)

Event Time Altitude Azimuth Distance (km) Brightness Sun altitude
Rises 18:13:17 0° 260° (W) 4,181 11.6 47.6°
Reaches altitude 10° 18:15:38 10° 259° (W) 3,462 11.3 47.5°
Maximum altitude 18:24:59 81° 174° (S) 1,984 10.7 46.8°
Drops below altitude 10° 18:40:29 10° 90° (E) 5,443 11.8 45.5°
Sets 18:45:13 0° 90° (E) 6,643 12.1 45.0°
